• In Italy
  • List of Countries
  • For 7 days
  • Water Temperature
  • Satellite Maps
  • Weather Map
  • Weather Widgets
  • user-avatar
    Login

    Hourly Weather Hinnerup

    Today, 20 February, Tuesday

    Time Temperature Precipitation Wind Pressure Humidity
    00:00 -1°C° 0.2 mm 4 mps 762 mmHg 93%
    01:00 -1°C° 0 mm 4 mps 762 mmHg 92%
    02:00 -1°C° 0 mm 4 mps 762 mmHg 92%
    03:00 -1°C° 0 mm 4 mps 762 mmHg 92%
    04:00 -1°C° 0 mm 4 mps 762 mmHg 91%
    05:00 -1°C° 0 mm 4 mps 762 mmHg 92%
    06:00 -2°C° 0 mm 4 mps 762 mmHg 92%
    07:00 -2°C° 0 mm 4 mps 763 mmHg 93%
    08:00 -1°C° 0 mm 4 mps 763 mmHg 90%
    09:00 -1°C° 0 mm 4 mps 763 mmHg 87%
    10:00 0°C° 0 mm 5 mps 763 mmHg 84%
    11:00 0°C° 0 mm 4 mps 764 mmHg 82%
    12:00 0°C° 0 mm 4 mps 764 mmHg 79%
    13:00 +1°C° 0 mm 4 mps 764 mmHg 77%
    14:00 +2°C° 0 mm 3 mps 764 mmHg 77%
    15:00 +2°C° 0 mm 3 mps 765 mmHg 76%
    16:00 +3°C° 0 mm 2 mps 765 mmHg 76%
    17:00 +2°C° 0 mm 2 mps 765 mmHg 79%
    18:00 +1°C° 0 mm 2 mps 765 mmHg 81%
    19:00 -1°C° 0 mm 2 mps 765 mmHg 84%
    20:00 -1°C° 0 mm 2 mps 766 mmHg 84%
    21:00 +1°C° 0 mm 1 mps 766 mmHg 84%
    22:00 0°C° 0 mm 1 mps 766 mmHg 84%
    23:00 0°C° 0 mm 1 mps 766 mmHg 83%

    Tomorrow, 21 February, Wednesday

    Time Temperature Precipitation Wind Pressure Humidity
    00:00 0°C° 0 mm 1 mps 766 mmHg 83%
    01:00 0°C° 0 mm 1 mps 766 mmHg 82%
    02:00 0°C° 0 mm 1 mps 766 mmHg 82%
    03:00 0°C° 0 mm 1 mps 766 mmHg 82%
    04:00 -2°C° 0 mm 2 mps 766 mmHg 82%
    05:00 -2°C° 0 mm 2 mps 766 mmHg 83%
    06:00 -2°C° 0 mm 2 mps 766 mmHg 84%
    07:00 -2°C° 0 mm 2 mps 766 mmHg 84%
    08:00 -1°C° 0 mm 2 mps 766 mmHg 82%
    09:00 +1°C° 0 mm 2 mps 766 mmHg 79%
    10:00 +1°C° 0 mm 2 mps 766 mmHg 77%
    11:00 +1°C° 0.1 mm 3 mps 766 mmHg 76%
    12:00 +2°C° 0.1 mm 3 mps 765 mmHg 76%
    13:00 +2°C° 0.1 mm 3 mps 765 mmHg 75%
    14:00 +2°C° 0.2 mm 3 mps 765 mmHg 77%
    15:00 +2°C° 0.2 mm 3 mps 765 mmHg 79%
    16:00 +2°C° 0.2 mm 3 mps 765 mmHg 81%
    17:00 +3°C° 0.1 mm 2 mps 765 mmHg 84%
    18:00 +2°C° 0.1 mm 2 mps 765 mmHg 86%
    19:00 +2°C° 0.1 mm 2 mps 765 mmHg 89%
    20:00 +1°C° 0 mm 2 mps 765 mmHg 89%
    21:00 +1°C° 0 mm 2 mps 765 mmHg 90%
    22:00 +1°C° 0 mm 2 mps 765 mmHg 90%
    23:00 +2°C° 0 mm 1 mps 766 mmHg 90%

    Day after tomorrow, 22 February, Thursday

    Time Temperature Precipitation Wind Pressure Humidity
    00:00 +2°C° 0 mm 1 mps 766 mmHg 90%
    01:00 +2°C° 0 mm 1 mps 766 mmHg 90%
    02:00 +2°C° 0 mm 1 mps 766 mmHg 91%
    03:00 +2°C° 0 mm 1 mps 766 mmHg 91%
    04:00 +2°C° 0 mm 1 mps 766 mmHg 91%
    05:00 -1°C° 0 mm 2 mps 766 mmHg 92%
    06:00 -1°C° 0 mm 2 mps 766 mmHg 93%
    07:00 -1°C° 0 mm 2 mps 766 mmHg 93%
    08:00 -1°C° 0 mm 2 mps 767 mmHg 92%
    09:00 +1°C° 0 mm 2 mps 767 mmHg 90%
    10:00 +2°C° 0 mm 2 mps 767 mmHg 89%
    11:00 +1°C° 0 mm 3 mps 767 mmHg 86%
    12:00 +2°C° 0 mm 3 mps 768 mmHg 84%
    13:00 +2°C° 0 mm 3 mps 768 mmHg 81%
    14:00 +2°C° 0 mm 3 mps 768 mmHg 82%
    15:00 +1°C° 0 mm 3 mps 768 mmHg 83%
    16:00 +1°C° 0 mm 3 mps 768 mmHg 83%
    17:00 +2°C° 0 mm 2 mps 768 mmHg 85%
    18:00 +1°C° 0 mm 2 mps 768 mmHg 86%
    19:00 +1°C° 0 mm 2 mps 768 mmHg 88%
    20:00 -1°C° 0 mm 2 mps 768 mmHg 87%
    21:00 -1°C° 0 mm 2 mps 768 mmHg 87%
    22:00 -1°C° 0 mm 2 mps 768 mmHg 87%
    23:00 -2°C° 0 mm 2 mps 768 mmHg 88%

    23 February, Friday

    Time Temperature Precipitation Wind Pressure Humidity
    00:00 -2°C° 0 mm 2 mps 768 mmHg 88%
    01:00 -3°C° 0 mm 2 mps 769 mmHg 89%
    02:00 -3°C° 0 mm 2 mps 768 mmHg 89%
    03:00 -1°C° 0 mm 1 mps 768 mmHg 89%
    04:00 -1°C° 0 mm 1 mps 768 mmHg 89%
    05:00 -1°C° 0 mm 1 mps 768 mmHg 88%
    06:00 -1°C° 0 mm 1 mps 768 mmHg 88%
    07:00 -1°C° 0 mm 1 mps 769 mmHg 87%
    08:00 0°C° 0 mm 1 mps 769 mmHg 83%
    09:00 0°C° 0 mm 1 mps 769 mmHg 79%
    10:00 +1°C° 0 mm 1 mps 769 mmHg 75%
    11:00 +2°C° 0 mm 1 mps 769 mmHg 71%
    12:00 +2°C° 0 mm 1 mps 770 mmHg 68%
    13:00 +3°C° 0 mm 1 mps 770 mmHg 64%
    14:00 +3°C° 0 mm 1 mps 770 mmHg 65%
    15:00 +3°C° 0 mm 1 mps 770 mmHg 66%
    16:00 +2°C° 0 mm 1 mps 770 mmHg 66%
    17:00 +2°C° 0 mm 1 mps 770 mmHg 71%
    18:00 +1°C° 0 mm 1 mps 770 mmHg 75%
    19:00 -2°C° 0 mm 2 mps 771 mmHg 80%
    20:00 0°C° 0 mm 1 mps 771 mmHg 80%
    21:00 0°C° 0 mm 1 mps 771 mmHg 81%
    22:00 -1°C° 0 mm 1 mps 772 mmHg 82%
    23:00 -3°C° 0 mm 2 mps 772 mmHg 82%

    24 February, Saturday

    Time Temperature Precipitation Wind Pressure Humidity
    00:00 -3°C° 0 mm 2 mps 772 mmHg 81%
    01:00 -3°C° 0 mm 2 mps 773 mmHg 81%
    02:00 -2°C° 0 mm 2 mps 773 mmHg 81%
    03:00 -2°C° 0 mm 2 mps 773 mmHg 81%
    04:00 -2°C° 0 mm 2 mps 773 mmHg 81%
    05:00 -2°C° 0 mm 3 mps 774 mmHg 81%
    06:00 -2°C° 0 mm 3 mps 774 mmHg 82%
    07:00 -2°C° 0 mm 3 mps 774 mmHg 83%
    08:00 -3°C° 0 mm 4 mps 775 mmHg 79%
    09:00 -2°C° 0 mm 4 mps 775 mmHg 75%
    10:00 -2°C° 0 mm 5 mps 775 mmHg 71%
    11:00 -2°C° 0 mm 5 mps 776 mmHg 68%
    12:00 -2°C° 0 mm 5 mps 776 mmHg 65%
    13:00 -2°C° 0 mm 5 mps 776 mmHg 62%
    14:00 -2°C° 0 mm 5 mps 776 mmHg 61%
    15:00 -2°C° 0 mm 4 mps 776 mmHg 61%
    16:00 -2°C° 0 mm 4 mps 776 mmHg 60%
    17:00 -3°C° 0 mm 4 mps 776 mmHg 62%
    18:00 -4°C° 0 mm 4 mps 776 mmHg 64%
    19:00 -4°C° 0 mm 4 mps 776 mmHg 66%
    20:00 -5°C° 0 mm 3 mps 776 mmHg 65%
    21:00 -5°C° 0 mm 3 mps 776 mmHg 65%
    22:00 -5°C° 0 mm 3 mps 776 mmHg 65%
    23:00 -5°C° 0 mm 3 mps 776 mmHg 65%

    25 February, Sunday

    Time Temperature Precipitation Wind Pressure Humidity
    00:00 -5°C° 0 mm 3 mps 776 mmHg 66%
    01:00 -5°C° 0 mm 3 mps 776 mmHg 66%
    02:00 -5°C° 0 mm 3 mps 775 mmHg 67%
    03:00 -4°C° 0 mm 3 mps 775 mmHg 68%
    04:00 -4°C° 0 mm 3 mps 775 mmHg 70%
    05:00 -4°C° 0.1 mm 3 mps 775 mmHg 73%
    06:00 -5°C° 0.1 mm 4 mps 775 mmHg 76%
    07:00 -5°C° 0.1 mm 4 mps 775 mmHg 79%
    08:00 -6°C° 0.2 mm 5 mps 775 mmHg 78%
    09:00 -6°C° 0.2 mm 6 mps 775 mmHg 78%
    10:00 -6°C° 0.2 mm 6 mps 775 mmHg 77%
    11:00 -7°C° 0.1 mm 7 mps 776 mmHg 71%
    12:00 -7°C° 0.1 mm 7 mps 776 mmHg 65%
    13:00 -7°C° 0.1 mm 7 mps 776 mmHg 59%
    14:00 -7°C° 0 mm 7 mps 776 mmHg 59%
    15:00 -7°C° 0 mm 7 mps 776 mmHg 59%
    16:00 -7°C° 0 mm 7 mps 776 mmHg 58%
    17:00 -7°C° 0.1 mm 7 mps 776 mmHg 60%
    18:00 -8°C° 0.1 mm 7 mps 777 mmHg 62%
    19:00 -8°C° 0.1 mm 6 mps 777 mmHg 65%
    20:00 -8°C° 0.1 mm 7 mps 777 mmHg 65%
    21:00 -8°C° 0.1 mm 7 mps 777 mmHg 66%
    22:00 -8°C° 0.1 mm 7 mps 777 mmHg 67%
    23:00 -8°C° 0.1 mm 7 mps 777 mmHg 68%
    Show more